RYR24ZZ EDDK-EGSS

Flight info

Callsign RYR24ZZ
Flight time 0h 53m
Altitude 30000
Route NVO2R NVO Y868 SOGRI L608 BUB M624 NIK DCT KOZUF DCT IMPOH DCT SASKI/N0331F180 L608 SUMUM Y6 TOSVA
Aircraft B738/M-SDE2E3FGHIRWXY/LB1

Departure

Time 2026-04-23 09:25
Airport Cologne Bonn Airport (EDDK)

Arrival

Time 2026-04-23 10:19
Airport London Stansted Airport (EGSS)
Time Latitude Longitude Altitude Speed Heading
2026-04-23 08:59 50.88219 7.11854 232 ft 0 kts 214°
2026-04-23 09:13 50.88224 7.11859 229 ft 2 kts 216°
2026-04-23 09:14 50.88237 7.11875 231 ft 3 kts 212°
2026-04-23 09:14 50.88254 7.11888 231 ft 3 kts 185°
2026-04-23 09:14 50.88272 7.11884 231 ft 3 kts 147°
2026-04-23 09:14 50.88287 7.11863 230 ft 3 kts 127°
2026-04-23 09:15 50.88293 7.11850 234 ft 1 kts 126°
2026-04-23 09:15 50.88296 7.11843 230 ft 0 kts 126°
2026-04-23 09:18 50.88289 7.11859 231 ft 6 kts 118°
2026-04-23 09:18 50.88270 7.11949 229 ft 12 kts 122°
2026-04-23 09:18 50.88218 7.12064 229 ft 13 kts 127°
2026-04-23 09:18 50.88164 7.12178 229 ft 14 kts 127°
2026-04-23 09:19 50.88092 7.12337 230 ft 18 kts 124°
2026-04-23 09:19 50.88054 7.12424 231 ft 4 kts 124°
2026-04-23 09:19 50.88030 7.12491 232 ft 11 kts 118°
2026-04-23 09:19 50.87995 7.12579 231 ft 3 kts 134°
2026-04-23 09:20 50.87994 7.12580 231 ft 0 kts 134°
2026-04-23 09:23 50.87982 7.12629 229 ft 12 kts 96°
2026-04-23 09:23 50.87989 7.12721 232 ft 7 kts 70°
2026-04-23 09:23 50.88002 7.12789 234 ft 6 kts 80°
2026-04-23 09:23 50.88010 7.12858 238 ft 6 kts 89°
2026-04-23 09:24 50.87996 7.12975 238 ft 13 kts 123°
2026-04-23 09:24 50.87978 7.13006 239 ft 0 kts 134°
2026-04-23 09:24 50.87846 7.13199 242 ft 69 kts 138°
2026-04-23 09:25 50.87279 7.14021 253 ft 151 kts 137°
2026-04-23 09:25 50.86405 7.15296 850 ft 175 kts 137°
2026-04-23 09:25 50.85495 7.16594 2070 ft 185 kts 138°
2026-04-23 09:25 50.84423 7.18014 2819 ft 214 kts 139°
2026-04-23 09:26 50.83244 7.19650 3139 ft 238 kts 136°
2026-04-23 09:26 50.81950 7.21511 3510 ft 262 kts 136°
2026-04-23 09:26 50.80576 7.23468 4435 ft 266 kts 136°
2026-04-23 09:26 50.78975 7.24920 5462 ft 269 kts 164°
2026-04-23 09:27 50.77105 7.25064 6411 ft 276 kts 188°
2026-04-23 09:27 50.75341 7.23871 7222 ft 283 kts 221°
2026-04-23 09:27 50.74216 7.21330 8085 ft 285 kts 248°
2026-04-23 09:27 50.73640 7.18327 8929 ft 289 kts 270°
2026-04-23 09:28 50.74108 7.15323 9923 ft 284 kts 302°
2026-04-23 09:28 50.75034 7.12588 10711 ft 290 kts 295°
2026-04-23 09:28 50.75740 7.09582 11506 ft 294 kts 289°
2026-04-23 09:28 50.76326 7.06459 12373 ft 297 kts 287°
2026-04-23 09:29 50.76847 7.03275 13252 ft 300 kts 285°
2026-04-23 09:29 50.77333 7.00050 14112 ft 303 kts 284°
2026-04-23 09:29 50.77804 6.96772 14865 ft 308 kts 284°
2026-04-23 09:29 50.78263 6.93480 15547 ft 313 kts 283°
2026-04-23 09:30 50.78728 6.90087 16256 ft 318 kts 283°
2026-04-23 09:30 50.79195 6.86642 16950 ft 323 kts 283°
2026-04-23 09:30 50.79667 6.83142 17662 ft 327 kts 283°
2026-04-23 09:30 50.80142 6.79600 18383 ft 332 kts 282°
2026-04-23 09:31 50.80625 6.75999 19009 ft 338 kts 282°
2026-04-23 09:31 50.81127 6.72251 19176 ft 359 kts 282°
2026-04-23 09:31 50.81656 6.68275 19382 ft 376 kts 282°
2026-04-23 09:31 50.82196 6.64178 19853 ft 384 kts 281°
2026-04-23 09:32 50.82485 6.59957 20463 ft 387 kts 272°
2026-04-23 09:32 50.82542 6.55676 21074 ft 391 kts 270°
2026-04-23 09:32 50.82545 6.51359 21648 ft 395 kts 269°
2026-04-23 09:32 50.82546 6.47035 22206 ft 400 kts 270°
2026-04-23 09:33 50.82563 6.42605 22774 ft 404 kts 270°
2026-04-23 09:33 50.82595 6.38127 23328 ft 409 kts 270°
2026-04-23 09:33 50.82638 6.33614 23862 ft 413 kts 270°
2026-04-23 09:33 50.82686 6.29048 24349 ft 417 kts 270°
2026-04-23 09:34 50.82735 6.24436 24812 ft 421 kts 270°
2026-04-23 09:34 50.82784 6.19790 25237 ft 425 kts 270°
2026-04-23 09:34 50.82831 6.15099 25657 ft 429 kts 270°
2026-04-23 09:34 50.82878 6.10353 26090 ft 432 kts 270°
2026-04-23 09:35 50.82921 6.05600 26612 ft 433 kts 269°
2026-04-23 09:35 50.82958 6.00840 27190 ft 432 kts 268°
2026-04-23 09:35 50.82896 5.96093 27733 ft 432 kts 266°
2026-04-23 09:35 50.82772 5.91400 28239 ft 433 kts 265°
2026-04-23 09:36 50.82639 5.86627 28746 ft 434 kts 265°
2026-04-23 09:36 50.82526 5.81842 29277 ft 434 kts 266°
2026-04-23 09:36 50.82423 5.77073 29796 ft 435 kts 266°
2026-04-23 09:36 50.82321 5.72297 30294 ft 435 kts 265°
2026-04-23 09:37 50.82213 5.67480 30431 ft 443 kts 265°
2026-04-23 09:37 50.81982 5.57601 30443 ft 461 kts 265°
2026-04-23 09:38 50.81737 5.47287 30444 ft 477 kts 265°
2026-04-23 09:38 50.81478 5.36632 30436 ft 488 kts 265°
2026-04-23 09:39 50.81209 5.25897 30423 ft 488 kts 265°
2026-04-23 09:39 50.80930 5.15185 30426 ft 486 kts 264°
2026-04-23 09:40 50.80902 5.04568 30433 ft 484 kts 274°
2026-04-23 09:40 50.82471 4.94156 30455 ft 489 kts 286°
2026-04-23 09:41 50.84536 4.83898 30450 ft 491 kts 286°
2026-04-23 09:41 50.86530 4.73582 30439 ft 487 kts 285°
2026-04-23 09:42 50.88453 4.63344 30459 ft 488 kts 285°
2026-04-23 09:42 50.91317 4.53593 30464 ft 491 kts 305°
2026-04-23 09:43 50.95971 4.45739 30472 ft 489 kts 321°
2026-04-23 09:43 51.00975 4.38423 30449 ft 490 kts 309°
2026-04-23 09:44 51.04422 4.29200 30465 ft 489 kts 293°
2026-04-23 09:44 51.07220 4.19316 30446 ft 490 kts 293°
2026-04-23 09:45 51.10037 4.09419 30444 ft 491 kts 293°
2026-04-23 09:45 51.12884 3.99542 30445 ft 490 kts 293°
2026-04-23 09:46 51.15739 3.89661 30442 ft 491 kts 293°
2026-04-23 09:46 51.18570 3.79827 30440 ft 491 kts 293°
2026-04-23 09:47 51.21408 3.69922 30438 ft 490 kts 293°
2026-04-23 09:47 51.24233 3.60013 30445 ft 490 kts 292°
2026-04-23 09:48 51.27034 3.50147 30443 ft 490 kts 292°
2026-04-23 09:48 51.29837 3.40231 30444 ft 490 kts 292°
2026-04-23 09:49 51.32638 3.30283 30457 ft 490 kts 292°
2026-04-23 09:49 51.35414 3.20382 30464 ft 490 kts 292°
2026-04-23 09:50 51.38200 3.10404 30469 ft 490 kts 292°
2026-04-23 09:50 51.40975 3.00419 30464 ft 486 kts 292°
2026-04-23 09:50 51.42329 2.95541 30454 ft 472 kts 291°
2026-04-23 09:51 51.43653 2.90758 30464 ft 466 kts 291°
2026-04-23 09:51 51.46246 2.81347 30413 ft 465 kts 291°
2026-04-23 09:51 51.47555 2.76579 29956 ft 465 kts 291°
2026-04-23 09:52 51.48849 2.71859 29475 ft 460 kts 291°
2026-04-23 09:52 51.50132 2.67175 28980 ft 456 kts 291°
2026-04-23 09:52 51.51399 2.62537 28496 ft 452 kts 291°
2026-04-23 09:52 51.52656 2.57928 28017 ft 448 kts 291°
2026-04-23 09:53 51.53898 2.53366 27537 ft 444 kts 291°
2026-04-23 09:53 51.55113 2.48820 27047 ft 440 kts 290°
2026-04-23 09:53 51.56193 2.44234 26523 ft 437 kts 288°
2026-04-23 09:53 51.57199 2.39699 26335 ft 425 kts 288°
2026-04-23 09:54 51.58205 2.35177 25646 ft 428 kts 288°
2026-04-23 09:54 51.59210 2.30721 25488 ft 417 kts 288°
2026-04-23 09:54 51.60200 2.26365 24790 ft 421 kts 289°
2026-04-23 09:54 51.61204 2.21953 24335 ft 418 kts 289°
2026-04-23 09:55 51.62183 2.17633 24241 ft 404 kts 289°
2026-04-23 09:55 51.63375 2.13512 23389 ft 410 kts 304°
2026-04-23 09:55 51.65194 2.10047 23185 ft 398 kts 317°
2026-04-23 09:55 51.67408 2.07401 22487 ft 397 kts 334°
2026-04-23 09:56 51.69846 2.05384 22047 ft 393 kts 335°
2026-04-23 09:56 51.72285 2.03395 21590 ft 389 kts 335°
2026-04-23 09:56 51.74685 2.01415 21153 ft 385 kts 335°
2026-04-23 09:56 51.77025 1.99453 20735 ft 382 kts 335°
2026-04-23 09:57 51.79368 1.97467 20322 ft 378 kts 335°
2026-04-23 09:57 51.81681 1.95493 19913 ft 374 kts 335°
2026-04-23 09:57 51.83804 1.93676 19652 ft 367 kts 335°
2026-04-23 09:57 51.86037 1.91760 19232 ft 364 kts 335°
2026-04-23 09:58 51.88261 1.89831 18793 ft 363 kts 332°
2026-04-23 09:58 51.90184 1.87149 18333 ft 366 kts 311°
2026-04-23 09:58 51.91529 1.83665 18028 ft 363 kts 302°
2026-04-23 09:58 51.92709 1.80083 17675 ft 358 kts 300°
2026-04-23 09:59 51.93831 1.76567 17364 ft 353 kts 300°
2026-04-23 09:59 51.94949 1.73063 17050 ft 348 kts 300°
2026-04-23 09:59 51.96066 1.69590 16751 ft 346 kts 301°
2026-04-23 09:59 51.97184 1.66142 16448 ft 344 kts 301°
2026-04-23 10:00 51.98302 1.62716 16148 ft 344 kts 301°
2026-04-23 10:00 51.99424 1.59282 15865 ft 344 kts 301°
2026-04-23 10:00 52.00165 1.57018 15657 ft 344 kts 301°
2026-04-23 10:00 52.01287 1.53587 15353 ft 343 kts 301°
2026-04-23 10:01 52.02406 1.50161 15044 ft 342 kts 301°
2026-04-23 10:01 52.03518 1.46751 14755 ft 341 kts 301°
2026-04-23 10:01 52.04629 1.43344 14457 ft 340 kts 301°
2026-04-23 10:01 52.05737 1.39939 14149 ft 339 kts 300°
2026-04-23 10:02 52.06839 1.36548 13813 ft 338 kts 300°
2026-04-23 10:02 52.07938 1.33163 13508 ft 338 kts 300°
2026-04-23 10:02 52.09018 1.29830 13206 ft 336 kts 300°
2026-04-23 10:02 52.10096 1.26497 12903 ft 331 kts 300°
2026-04-23 10:03 52.11123 1.23173 12623 ft 327 kts 292°
2026-04-23 10:03 52.11507 1.19539 12356 ft 326 kts 269°
2026-04-23 10:03 52.11112 1.15941 12154 ft 321 kts 256°
2026-04-23 10:03 52.10536 1.12464 11911 ft 316 kts 255°
2026-04-23 10:04 52.09943 1.09038 11692 ft 313 kts 255°
2026-04-23 10:04 52.09354 1.05636 11483 ft 312 kts 255°
2026-04-23 10:04 52.08769 1.02237 11245 ft 311 kts 255°
2026-04-23 10:04 52.08195 0.98859 11035 ft 310 kts 255°
2026-04-23 10:05 52.07622 0.95475 10820 ft 310 kts 255°
2026-04-23 10:05 52.07054 0.92103 10599 ft 309 kts 255°
2026-04-23 10:05 52.06487 0.88737 10372 ft 308 kts 255°
2026-04-23 10:05 52.05930 0.85431 10136 ft 306 kts 255°
2026-04-23 10:06 52.05367 0.82090 9931 ft 305 kts 254°
2026-04-23 10:06 52.04807 0.78776 9672 ft 303 kts 254°
2026-04-23 10:06 52.04253 0.75500 9473 ft 299 kts 254°
2026-04-23 10:06 52.03704 0.72258 9249 ft 295 kts 254°
2026-04-23 10:07 52.03156 0.69026 8677 ft 297 kts 254°
2026-04-23 10:07 52.02615 0.65842 8366 ft 288 kts 253°
2026-04-23 10:07 52.02092 0.62772 8153 ft 277 kts 253°
2026-04-23 10:07 52.01596 0.59798 7885 ft 269 kts 257°
2026-04-23 10:08 52.01404 0.56774 7458 ft 271 kts 268°
2026-04-23 10:08 52.01360 0.53752 7024 ft 271 kts 268°
2026-04-23 10:08 52.01306 0.50675 6577 ft 274 kts 268°
2026-04-23 10:09 52.01132 0.44543 5997 ft 263 kts 264°
2026-04-23 10:09 52.00961 0.41629 5982 ft 256 kts 263°
2026-04-23 10:09 52.00785 0.38781 5986 ft 252 kts 263°
2026-04-23 10:09 52.00613 0.35946 5971 ft 253 kts 263°
2026-04-23 10:10 52.00445 0.33113 6014 ft 252 kts 263°
2026-04-23 10:10 52.00277 0.30276 5999 ft 252 kts 263°
2026-04-23 10:10 51.99913 0.27519 5994 ft 250 kts 240°
2026-04-23 10:10 51.98838 0.25362 6012 ft 245 kts 220°
2026-04-23 10:11 51.97601 0.23491 6009 ft 248 kts 219°
2026-04-23 10:11 51.96311 0.21567 5835 ft 257 kts 219°
2026-04-23 10:11 51.94972 0.19580 5444 ft 263 kts 219°
2026-04-23 10:11 51.93617 0.17566 5098 ft 267 kts 219°
2026-04-23 10:12 51.92244 0.15519 4729 ft 269 kts 219°
2026-04-23 10:12 51.90855 0.13445 4338 ft 273 kts 219°
2026-04-23 10:12 51.89446 0.11342 3959 ft 276 kts 220°
2026-04-23 10:12 51.88041 0.09240 3556 ft 273 kts 220°
2026-04-23 10:13 51.86658 0.07174 3198 ft 269 kts 219°
2026-04-23 10:13 51.85311 0.05140 3017 ft 266 kts 220°
2026-04-23 10:13 51.83998 0.03091 3001 ft 256 kts 220°
2026-04-23 10:13 51.82743 0.01129 3011 ft 244 kts 220°
2026-04-23 10:14 51.81545 -0.00745 2978 ft 235 kts 221°
2026-04-23 10:14 51.80306 -0.02357 2937 ft 222 kts 198°
2026-04-23 10:14 51.78854 -0.02591 3002 ft 212 kts 160°
2026-04-23 10:14 51.77772 -0.01250 3034 ft 193 kts 118°
2026-04-23 10:15 51.77301 0.00766 2950 ft 189 kts 100°
2026-04-23 10:15 51.77276 0.02777 2989 ft 175 kts 82°
2026-04-23 10:15 51.77592 0.04640 2962 ft 172 kts 71°
2026-04-23 10:15 51.78099 0.06347 3021 ft 174 kts 67°
2026-04-23 10:16 51.78691 0.08096 2924 ft 180 kts 58°
2026-04-23 10:16 51.79484 0.09676 2706 ft 178 kts 53°
2026-04-23 10:16 51.80327 0.11146 2468 ft 179 kts 49°
2026-04-23 10:16 51.81236 0.12544 2183 ft 183 kts 45°
2026-04-23 10:17 51.82173 0.13928 1966 ft 183 kts 48°
2026-04-23 10:17 51.83084 0.15325 1729 ft 175 kts 46°
2026-04-23 10:17 51.83955 0.16642 1464 ft 167 kts 46°
2026-04-23 10:17 51.84777 0.17877 1243 ft 155 kts 46°
2026-04-23 10:18 51.85533 0.19027 983 ft 145 kts 45°
2026-04-23 10:18 51.86260 0.20100 792 ft 139 kts 44°
2026-04-23 10:18 51.86971 0.21167 578 ft 139 kts 45°
2026-04-23 10:18 51.87672 0.22234 389 ft 137 kts 44°
2026-04-23 10:19 51.88323 0.23217 338 ft 113 kts 42°
2026-04-23 10:19 51.88762 0.23881 337 ft 45 kts 46°
2026-04-23 10:19 51.88862 0.24140 350 ft 18 kts 68°
2026-04-23 10:19 51.88895 0.24314 348 ft 15 kts 68°
2026-04-23 10:20 51.88920 0.24474 344 ft 15 kts 105°
2026-04-23 10:20 51.88864 0.24587 351 ft 12 kts 132°
2026-04-23 10:20 51.88815 0.24694 351 ft 12 kts 104°
2026-04-23 10:20 51.88856 0.24800 348 ft 12 kts 42°
2026-04-23 10:21 51.88917 0.24891 351 ft 14 kts 43°
2026-04-23 10:21 51.89002 0.25017 348 ft 19 kts 42°
2026-04-23 10:21 51.89095 0.25157 348 ft 18 kts 41°
2026-04-23 10:21 51.89184 0.25289 348 ft 17 kts 44°
2026-04-23 10:22 51.89270 0.25420 351 ft 16 kts 43°
2026-04-23 10:22 51.89347 0.25545 352 ft 16 kts 62°
2026-04-23 10:22 51.89304 0.25678 348 ft 10 kts 132°
2026-04-23 10:22 51.89310 0.25735 351 ft 5 kts 45°
2026-04-23 10:23 51.89334 0.25772 348 ft 4 kts 41°
2026-04-23 10:23 51.89341 0.25782 348 ft 0 kts 43°
2026-04-23 11:19 51.89341 0.25781 348 ft 0 kts 43°
2026-04-23 11:20 51.89340 0.25781 348 ft 0 kts 43°